Flag for U.S.A. Weather past 2 weeks in Hollywood, California, U.S.A.

Now
78 °F

Sunny.


Feels Like: 79 °F
Forecast: 68 / 91 °F
Wind: No wind

Location: Van Nuys Airport

Current Time: Jul 31, 2014 at 9:42:51 AM

Latest Report: Jul 31, 2014 at 8:51 AM


Visibility: 10 mi

Pressure: 29.91 "Hg

Humidity: 50%

Dew point: 58 °F

Location of HollywoodLocation

Historic Weather in Hollywood — Graph

°F

Hollywood temperature yesterday

Maximum temperature yesterday: 95 °F (at 1:51 PM)
Minimum temperature yesterday: 72 °F (at 1:51 AM)
Average temperature yesterday: 82 °F

Past Weeks' High & Low Weather Summary

 TemperatureHumidityPressure
High102 °F (Jul 24, 3:51 PM)84% (Jul 17, 3:51 AM)30.05 "Hg (Jul 17, 3:51 AM)
Low62 °F (Jul 18, 4:51 AM)7% (Jul 24, 12:51 PM)29.70 "Hg (Jul 24, 5:51 PM)
Average77 °F50%29.93 "Hg
* Reported Jul 16 8:51 AM — Jul 31 8:51 AM, Hollywood, Weather by CustomWeather, © 2014

Note: Actual official high and low records may vary slightly from our data, if they occured in-between our weather recording intervals... More about our weather records

Advertising

Hollywood weather history for previous 24 hours

 ConditionsComfort  
Time TempWeatherWind HumidityBarometerVisibility
8:51 AM
Jul 31
78 °FSunny.No wind50%29.91 "Hg10 mi
7:51 AM75 °FSunny.No wind54%29.91 "Hg10 mi
6:51 AM72 °FClear.3 mph61%29.91 "Hg10 mi
5:51 AM72 °FClear.3 mph59%29.90 "Hg10 mi
4:51 AM72 °FClear.5 mph61%29.89 "Hg10 mi
3:51 AM72 °FClear.No wind61%29.88 "Hg10 mi
2:51 AM73 °FClear.5 mph59%29.88 "Hg10 mi
1:51 AM74 °FClear.No wind57%29.90 "Hg10 mi
12:51 AM75 °FClear.No wind54%29.90 "Hg10 mi
11:51 PM
Jul 30
75 °FClear.3 mph54%29.90 "Hg10 mi
10:51 PM77 °FClear.5 mph50%29.90 "Hg10 mi
9:51 PM78 °FClear.6 mph48%29.90 "Hg10 mi
8:51 PM82 °FSunny.3 mph41%29.88 "Hg10 mi
7:51 PM83 °FSunny.6 mph40%29.86 "Hg10 mi
6:51 PM89 °FSunny.6 mph31%29.85 "Hg10 mi
5:51 PM90 °FSunny.7 mph32%29.85 "Hg10 mi
4:51 PM93 °FSunny.9 mph27%29.86 "Hg10 mi
3:51 PM93 °FSunny.9 mph28%29.86 "Hg10 mi
2:51 PM95 °FSunny.9 mph26%29.88 "Hg10 mi
1:51 PM95 °FSunny.9 mph26%29.89 "Hg10 mi
12:51 PM94 °FSunny.8 mph29%29.90 "Hg10 mi
11:51 AM92 °FSunny.5 mph31%29.92 "Hg10 mi
10:51 AM87 °FSunny.3 mph32%29.93 "Hg10 mi
9:51 AM83 °FSunny.No wind38%29.93 "Hg10 mi
Weather by CustomWeather, © 2014

See weather overviewHow to use our weather pages